Content
SEND FEEDBACK

Daily
Averages
Monthly
Summary
United States of America

PYGA BEACH, GUAM


Home > North America > United States > Guam
Elevation: 20 feet     Latitude: 13 17N     Longitude: 144 39E

WEATHER
 
SELECT A DAY
Number of Records: 342,273;   Date Range: 1/1/95 - 8/30/14
 
SHARE

PRINT THIS DATA

[ ← Previous Day ]
WEATHER ALMANAC - APRIL 16, 2014
[ Next Day → ]
[ °C ]   °F
Weather ElementAverageHighLow
Temperature80.5 °F84.4 °F (11:58 am)77 °F (12:44 am)
Dewpoint76 °F77 °F (12:24 am)73.4 °F (10:33 pm)
Humidity86.3 %100 % (6:23 am)74 % (12:13 pm)
Barometer29.81 in29.86 in (10:03 am)29.73 in (2:58 pm)
Wind Speed9.1 mph18.4 mph (10:28 pm)
Weather ElementAverage
Visibility9.2 mi
Wind DirectionENE (70.1 °)

Weather ElementTotal
Precipitation0.39 in
Cooling Degree Days15.7 (Base 65)
Growing Degree Days30.7 (Base 50)
Averaged from 82 records on April 16, 2014
WEATHER CONDITIONS BREAKOUT
WIND DIRECTION BREAKOUT
WEATHER BY HOUR - APRIL 16, 2014
[ °C ]   °F
Local TimeTemperatureDewpointHumidityBarometerVisibilityWind DirectionWind SpeedGust SpeedPrecipitationEventsConditions
12:19 AM78.8 °F75.2 °F89 %29.84 in4.0 miNNE (30°)6.9 mphRainLight Rain
12:24 AM78.8 °F77.0 °F94 %29.84 in3.0 miNorth (350°)8.1 mphRainLight Rain
12:39 AM78.8 °F75.2 °F89 %29.84 in3.0 miVariable2.3 mphRainLight Rain
12:44 AM77.0 °F75.2 °F94 %29.84 in2.5 miCalmRainHeavy Rain
12:49 AM78.8 °F75.2 °F89 %29.83 in3.0 miCalmRainHeavy Rain
12:58 AM77.9 °F75.9 °F94 %29.81 in4.0 miWNW (300°)4.6 mph0.06 inRainRain
1:23 AM77.0 °F75.2 °F94 %29.83 in10.0 miWest (270°)2.3 mphRainLight Rain
1:43 AM77.0 °F75.2 °F94 %29.82 in4.0 miNNW (340°)2.3 mphRainHeavy Rain
1:58 AM77.0 °F75.2 °F94 %29.79 in10.0 miNNW (340°)3.5 mph0.20 inRainLight Rain
2:20 AM77.0 °F75.2 °F94 %29.81 in10.0 miNNW (340°)1.2 mphPartly Cloudy
2:55 AM77.0 °F75.2 °F94 %29.81 in10.0 miNorth (10°)3.5 mphMostly Cloudy
2:58 AM77.2 °F75.9 °F96 %29.78 in10.0 miNNE (20°)3.5 mph0.00 inMostly Cloudy
3:13 AM77.0 °F75.2 °F94 %29.80 in10.0 miCalmLight Drizzle
3:18 AM77.0 °F75.2 °F94 %29.80 in10.0 miCalmLight Drizzle
3:28 AM77.0 °F75.2 °F94 %29.80 in8.0 miCalmMostly Cloudy
3:58 AM77.7 °F75.7 °F94 %29.77 in10.0 miENE (60°)1.2 mph0.00 inPartly Cloudy
4:58 AM77.2 °F75.7 °F95 %29.79 in10.0 miNNW (330°)2.3 mphScattered Clouds
5:58 AM77.4 °F75.6 °F94 %29.79 in10.0 miNorth (10°)3.5 mphClear
6:23 AM77.0 °F77.0 °F100 %29.83 in10.0 miNNE (20°)3.5 mphMostly Cloudy
6:28 AM77.0 °F77.0 °F100 %29.83 in10.0 miNNE (30°)4.6 mphScattered Clouds
6:58 AM78.1 °F76.1 °F94 %29.81 in10.0 miNNE (30°)3.5 mphPartly Cloudy
7:58 AM80.1 °F76.3 °F88 %29.81 in10.0 miNorth (10°)4.6 mphScattered Clouds
8:58 AM81.9 °F75.9 °F82 %29.83 in10.0 miNorth (10°)8.1 mphClear
9:58 AM83.1 °F75.9 °F79 %29.83 in10.0 miNorth (360°)8.1 mphScattered Clouds
10:03 AM84.2 °F77.0 °F79 %29.86 in10.0 miNNE (20°)8.1 mphMostly Cloudy
10:08 AM82.4 °F77.0 °F84 %29.86 in10.0 miNorth (10°)10.4 mphMostly Cloudy
10:13 AM82.4 °F77.0 °F84 %29.86 in10.0 miNNE (30°)10.4 mphMostly Cloudy
10:18 AM82.4 °F77.0 °F84 %29.85 in10.0 miNorth (10°)8.1 mphMostly Cloudy
10:58 AM83.8 °F76.5 °F78 %29.81 in10.0 miNorth (10°)10.4 mphMostly Cloudy
11:38 AM82.4 °F77.0 °F84 %29.83 in10.0 miNorth (10°)12.7 mphMostly Cloudy
11:43 AM82.4 °F77.0 °F84 %29.83 in10.0 miNNE (20°)11.5 mphMostly Cloudy
11:48 AM84.2 °F77.0 °F79 %29.83 in10.0 miNNE (20°)12.7 mphMostly Cloudy
11:58 AM84.4 °F77.0 °F78 %29.81 in10.0 miNNE (20°)10.4 mphOvercast
12:08 PM84.2 °F77.0 °F79 %29.82 in10.0 miNNE (20°)10.4 mphMostly Cloudy
12:13 PM84.2 °F75.2 °F74 %29.82 in10.0 miNNE (20°)10.4 mphMostly Cloudy
12:48 PM84.2 °F77.0 °F79 %29.80 in10.0 miNorth (10°)10.4 mphMostly Cloudy
12:58 PM84.0 °F75.6 °F76 %29.77 in10.0 miNNE (30°)10.4 mphMostly Cloudy
1:08 PM84.2 °F75.2 °F74 %29.79 in10.0 miNE (40°)12.7 mphMostly Cloudy
1:23 PM84.2 °F75.2 °F74 %29.78 in10.0 miNE (50°)12.7 mphScattered Clouds
1:33 PM84.2 °F75.2 °F74 %29.78 in10.0 miNE (40°)12.7 mphMostly Cloudy
1:53 PM84.2 °F77.0 °F79 %29.78 in10.0 miNNE (20°)12.7 mphMostly Cloudy
1:58 PM84.2 °F77.0 °F79 %29.74 in10.0 miNNE (30°)10.4 mphMostly Cloudy
2:08 PM84.2 °F77.0 °F79 %29.77 in10.0 miNNE (30°)12.7 mphMostly Cloudy
2:13 PM84.2 °F77.0 °F79 %29.77 in10.0 miNNE (20°)12.7 mphMostly Cloudy
2:23 PM84.2 °F77.0 °F79 %29.77 in10.0 miNorth (10°)11.5 mphScattered Clouds
2:48 PM84.2 °F77.0 °F79 %29.77 in10.0 miNE (40°)11.5 mphMostly Cloudy
2:58 PM83.3 °F76.3 °F79 %29.73 in10.0 miNE (40°)12.7 mphMostly Cloudy
3:23 PM84.2 °F75.2 °F74 %29.76 in10.0 miENE (60°)12.7 mphScattered Clouds
3:28 PM84.2 °F75.2 °F74 %29.76 in10.0 miNE (40°)11.5 mphMostly Cloudy
3:33 PM84.2 °F75.2 °F74 %29.76 in10.0 miENE (60°)11.5 mphMostly Cloudy
3:58 PM84.4 °F76.3 °F77 %29.73 in10.0 miNE (40°)12.7 mphMostly Cloudy
4:58 PM83.5 °F76.1 °F78 %29.73 in10.0 miNE (50°)11.5 mphMostly Cloudy
5:13 PM82.4 °F75.2 °F79 %29.76 in10.0 miNE (50°)13.8 mphScattered Clouds
5:58 PM81.9 °F76.5 °F84 %29.75 in10.0 miENE (60°)12.7 mphScattered Clouds
6:58 PM80.8 °F76.1 °F86 %29.77 in10.0 miENE (60°)11.5 mphScattered Clouds
7:23 PM80.6 °F77.0 °F89 %29.81 in10.0 miENE (60°)11.5 mphMostly Cloudy
7:28 PM80.6 °F77.0 °F89 %29.81 in10.0 miENE (60°)11.5 mphScattered Clouds
7:58 PM80.4 °F75.2 °F84 %29.79 in10.0 miENE (60°)10.4 mphScattered Clouds
8:18 PM80.6 °F75.2 °F84 %29.83 in10.0 miEast (80°)11.5 mphMostly Cloudy
8:33 PM80.6 °F75.2 °F84 %29.83 in10.0 miENE (60°)12.7 mphMostly Cloudy
8:37 PM80.6 °F75.2 °F84 %29.83 in10.0 miENE (60°)12.7 mphLight Drizzle
8:55 PM78.8 °F77.0 °F94 %29.83 in10.0 miENE (70°)11.5 mphOvercast
8:58 PM79.5 °F76.3 °F90 %29.81 in10.0 miENE (70°)12.7 mph0.00 inOvercast
9:03 PM78.8 °F77.0 °F94 %29.83 in10.0 miENE (70°)11.5 mphOvercast
9:08 PM78.8 °F75.2 °F89 %29.83 in10.0 miENE (70°)11.5 mphOvercast
9:13 PM78.8 °F75.2 °F89 %29.83 in10.0 miEast (80°)12.7 mphOvercast
9:38 PM80.6 °F75.2 °F84 %29.84 in10.0 miNE (50°)10.4 mphMostly Cloudy
9:46 PM80.6 °F77.0 °F89 %29.84 in10.0 miNE (50°)8.1 mphLight Drizzle
9:58 PM79.3 °F75.4 °F88 %29.82 in8.0 miENE (70°)11.5 mph0.01 inRainRain
10:03 PM78.8 °F75.2 °F89 %29.85 in8.0 miENE (70°)10.4 mphRainLight Rain
10:08 PM78.8 °F77.0 °F94 %29.85 in10.0 miENE (70°)9.2 mphLight Drizzle
10:09 PM78.8 °F77.0 °F94 %29.85 in10.0 miENE (70°)9.2 mphMostly Cloudy
10:14 PM78.8 °F77.0 °F94 %29.85 in10.0 miENE (70°)10.4 mphMostly Cloudy
10:18 PM78.8 °F77.0 °F94 %29.85 in10.0 miENE (70°)10.4 mphRainLight Rain
10:28 PM78.8 °F75.2 °F89 %29.85 in9.0 miEast (90°)18.4 mphRainLight Rain
10:33 PM77.0 °F73.4 °F89 %29.85 in5.0 miEast (90°)15.0 mphRainHeavy Rain
10:38 PM77.0 °F73.4 °F89 %29.85 in6.0 miEast (90°)16.1 mphRainLight Rain
10:46 PM78.8 °F75.2 °F89 %29.85 in10.0 miEast (90°)12.7 mphMostly Cloudy
10:51 PM78.8 °F75.2 °F89 %29.85 in10.0 miEast (80°)10.4 mphMostly Cloudy
10:58 PM78.8 °F75.2 °F89 %29.82 in10.0 miENE (70°)10.4 mph0.12 inMostly Cloudy
11:03 PM78.8 °F75.2 °F89 %29.85 in10.0 miENE (70°)10.4 mphMostly Cloudy
11:58 PM79.2 °F75.4 °F88 %29.81 in10.0 miEast (80°)12.7 mphOvercast
Hourly data recorded from PGUA, located miles away from Pyga Beach, Guam







STORIES FROM OUR PARTNERS